FW1418 Weather Reports


Display with metric or nautical units.
time (UTC)temp
F
wind
direction
speed
MPH
gust
MPH
rain 1hr
in
rain 24hr
in
rain mn
in
humidity
%
barometer
mb
20260901051526 71 25 1.0 2.0 0.00 0.22 0.00 98 1011.9
20260901050026 71 26 0.0 0.0 0.00 0.22 0.00 98 1012.0
20260901044532 71 26 0.0 0.0 0.00 0.22 0.00 98 1012.0
20260901043023 71 26 0.0 0.0 0.00 0.22 0.00 97 1012.0
20260901041527 72 26 0.0 0.0 0.00 0.22 0.00 96 1012.1
20260901040023 72 26 0.0 0.0 0.00 0.22 0.22 95 1012.1
20260901034532 73 26 0.0 0.0 0.00 0.22 0.22 95 1012.2
20260901033023 73 26 0.0 0.0 0.00 0.22 0.22 96 1012.1
20260901031529 73 26 0.0 0.0 0.00 0.22 0.22 96 1012.1
20260901030018 73 26 0.0 0.0 0.00 0.22 0.22 96 1012.2
20260901024516 73 26 0.0 0.0 0.00 0.22 0.22 96 1012.3
20260901023016 73 26 0.0 0.0 0.00 0.22 0.22 95 1012.1
20260901021515 73 26 0.0 0.0 0.00 0.22 0.22 95 1012.1
20260901020015 74 26 0.0 0.0 0.00 0.22 0.22 94 1012.0
20260901014514 74 26 0.0 0.0 0.00 0.22 0.22 93 1011.9
20260901013014 74 26 0.0 3.0 0.00 0.22 0.22 93 1011.7
20260901011515 74 26 0.0 2.0 0.00 0.22 0.22 93 1011.7
20260901010026 74 26 1.0 2.0 0.00 0.22 0.22 94 1011.7
20260901004518 75 26 0.0 0.0 0.00 0.22 0.22 93 1011.1
20260901003012 75 26 0.0 2.0 0.00 0.22 0.22 91 1010.7
20260901001515 76 26 0.0 3.0 0.00 0.22 0.22 89 1010.9
20260901000011 77 26 0.0 2.0 0.00 0.22 0.22 87 1011.0
20260831234511 78 26 0.0 2.0 0.00 0.22 0.22 86 1010.8
20260831233010 81 26 0.0 4.0 0.00 0.22 0.22 82 1010.9
20260831231511 82 292 0.0 4.0 0.00 0.22 0.22 78 1011.0
20260831230009 83 260 1.0 3.0 0.00 0.22 0.22 76 1010.5
20260831224508 84 265 2.0 6.0 0.00 0.22 0.22 74 1010.3
20260831223008 84 291 1.0 4.0 0.00 0.22 0.22 75 1010.3
20260831221506 83 313 1.0 5.0 0.00 0.22 0.22 77 1010.4
20260831220006 83 264 2.0 9.0 0.00 0.22 0.22 75 1010.4
20260831214505 84 229 4.0 10.0 0.00 0.22 0.22 73 1010.2
20260831213005 83 333 1.0 5.0 0.00 0.22 0.22 75 1010.2
20260831211505 83 216 4.0 10.0 0.00 0.22 0.22 73 1010.3
20260831210002 83 248 4.0 9.0 0.00 0.22 0.22 73 1010.3
20260831204502 84 250 3.0 10.0 0.00 0.22 0.22 72 1010.2
20260831203001 85 254 4.0 7.0 0.00 0.22 0.22 71 1010.3
20260831201612 85 323 3.0 9.0 0.00 0.22 0.22 71 1010.3
20260831200059 86 288 3.0 10.0 0.00 0.22 0.22 70 1010.4
20260831194601 87 331 2.0 11.0 0.00 0.22 0.22 69 1010.5
20260831193127 87 221 7.0 12.0 0.00 0.22 0.22 70 1010.7
20260831191553 87 270 6.0 14.0 0.00 0.22 0.22 70 1010.7
20260831190051 87 286 6.0 12.0 0.00 0.22 0.22 72 1010.7
20260831184547 85 270 6.0 12.0 0.00 0.22 0.22 73 1010.8
20260831183053 85 266 5.0 12.0 0.00 0.22 0.22 74 1010.9
20260831181551 84 252 7.0 17.0 0.00 0.22 0.22 75 1010.9
20260831180040 84 275 8.0 17.0 0.00 0.22 0.22 75 1011.0
20260831174538 83 244 7.0 14.0 0.00 0.22 0.22 76 1011.1
20260831173034 82 202 2.0 12.0 0.00 0.22 0.22 81 1011.3
20260831171530 81 178 2.0 7.0 0.00 0.22 0.22 83 1011.6
20260831170033 79 227 5.0 15.0 0.00 0.22 0.22 83 1011.9
20260831164525 79 245 3.0 15.0 0.00 0.22 0.22 85 1012.1
20260831163026 78 187 4.0 14.0 0.00 0.22 0.22 86 1012.0
20260831161534 78 183 3.0 12.0 0.00 0.22 0.22 88 1012.0
20260831160019 76 228 5.0 13.0 0.00 0.22 0.22 90 1012.3
20260831154512 74 247 3.0 14.0 0.00 0.22 0.22 94 1012.6
20260831153008 73 281 2.0 9.0 0.00 0.22 0.22 100 1012.8
20260831151508 72 222 2.0 6.0 0.00 0.22 0.22 100 1013.0
20260831150005 72 209 1.0 4.0 0.00 0.22 0.22 100 1013.2
20260831144503 71 190 0.0 2.0 0.00 0.22 0.22 100 1013.6
20260831143002 70 202 0.0 4.0 0.00 0.22 0.22 100 1014.0
20260831141501 70 170 0.0 4.0 0.00 0.22 0.22 100 1014.3
20260831140100 70 200 1.0 4.0 0.00 0.22 0.22 100 1014.5
20260831134606 70 155 1.0 3.0 0.02 0.22 0.22 100 1014.4
20260831133059 69 155 1.0 2.0 0.06 0.22 0.22 100 1014.2
20260831131602 69 156 3.0 5.0 0.11 0.22 0.22 100 1014.2
20260831130105 69 200 0.0 5.0 0.14 0.22 0.22 100 1014.1
20260831124558 69 246 3.0 7.0 0.14 0.20 0.20 100 1014.3
20260831123057 69 246 1.0 7.0 0.10 0.16 0.16 100 1014.4
20260831121556 69 267 3.0 9.0 0.04 0.10 0.10 100 1014.4
20260831120055 69 217 1.0 5.0 0.02 0.08 0.08 100 1013.8
20260831114556 69 211 1.0 4.0 0.00 0.06 0.06 100 1013.0
20260831113057 68 219 2.0 5.0 0.00 0.06 0.06 100 1012.8
20260831111555 68 218 2.0 5.0 0.00 0.06 0.06 100 1012.8
20260831110053 68 196 1.0 3.0 0.00 0.06 0.06 100 1012.8
20260831104552 68 196 0.0 2.0 0.00 0.06 0.06 100 1012.8
20260831103051 68 196 0.0 2.0 0.00 0.06 0.06 100 1012.7
20260831101548 68 196 0.0 2.0 0.00 0.06 0.06 100 1013.2
20260831100104 68 196 0.0 0.0 0.00 0.06 0.06 100 1013.6
20260831094549 68 196 0.0 2.0 0.00 0.06 0.06 100 1013.7
20260831093055 68 196 0.0 0.0 0.00 0.06 0.06 100 1014.1
20260831091546 68 196 0.0 1.0 0.00 0.06 0.06 100 1014.1
20260831090056 68 196 0.0 1.0 0.00 0.06 0.06 100 1014.4
20260831084544 68 196 0.0 0.0 0.00 0.06 0.06 100 1014.4
20260831083101 68 196 0.0 3.0 0.00 0.06 0.06 100 1014.5
20260831081553 68 196 1.0 3.0 0.02 0.06 0.06 100 1014.2
20260831080111 68 196 0.0 1.0 0.06 0.06 0.06 100 1014.1
20260831074543 68 196 0.0 1.0 0.06 0.06 0.06 100 1014.1
20260831073041 69 196 0.0 1.0 0.06 0.06 0.06 100 1014.2
20260831071545 69 196 1.0 3.0 0.04 0.04 0.04 100 1014.2
20260831070039 68 179 0.0 2.0 0.00 0.00 0.00 100 1014.1
20260831064539 68 119 0.0 0.0 0.00 0.00 0.00 99 1013.6
20260831063037 69 119 0.0 0.0 0.00 0.00 0.00 99 1013.6
20260831061538 69 119 0.0 0.0 0.00 0.00 0.00 99 1013.8
20260831060032 69 119 0.0 0.0 0.00 0.00 0.00 99 1014.2
20260831054532 69 119 0.0 0.0 0.00 0.00 0.00 98 1014.5
20260831053043 69 119 0.0 0.0 0.00 0.00 0.00 98 1014.4